Regional Weather Roundup
Issued by NWS

Home | Current Version | Previous Version | Text Only | Print | Product List | Glossary Off
Versions: 1 2 3 4 5 6 7 8 9 10 11 12 13 14 15 16 17 18 19 20 21 22 23 24 25 26 27

000
ASUS45 KBOU 201207
RWRCO

WEATHER ROUNDUP FOR COLORADO
NATIONAL WEATHER SERVICE DENVER/BOULDER CO
600 AM MDT WED SEP 20 2017

NOTE: "FAIR" INDICATES FEW OR NO CLOUDS BELOW 12000 FEET WITH NO
SIGNIFICANT WEATHER AND/OR OBSTRUCTIONS TO VISIBILITY.

COZ001>005-013-030-031-201300-
...NORTHWEST COLORADO...

CITY           SKY/WX    TMP DP  RH WIND       PRES   REMARKS
CRAIG          CLOUDY    40  35  83 NE10      30.04S
HAYDEN         CLOUDY    37  34  89 E13       30.06S
MEEKER         CLOUDY    40  37  89 CALM      30.03S
RABBIT EARS PA CLOUDY    32  30  93 W10G17    30.12S WCI  24
STEAMBOAT SPGS CLOUDY    35  34  97 CALM      30.06S
WALDEN         CLOUDY    34  32  93 E3        30.07F
$$

COZ006>008-011-201300-
...WEST CENTRAL VALLEYS...

CITY           SKY/WX    TMP DP  RH WIND       PRES   REMARKS
GRAND JUNCTION FAIR      48  36  63 CALM      29.93R
MONTROSE       FAIR      53  33  46 VRB5      30.00R
EAGLE          CLOUDY    45  32  60 CALM      30.06R
RIFLE          FAIR      45  35  68 SE3       29.99R
DELTA          FAIR      50  36  57 N6        29.97R
NUCLA          FAIR      59  27  29 S9G16     30.03R
$$

COZ017>023-064>068-201300-
...SOUTHWEST COLORADO...

CITY           SKY/WX    TMP DP  RH WIND       PRES   REMARKS
DURANGO        FAIR      39  27  62 NE3       30.09R
CORTEZ         FAIR      45  30  55 NE9       30.04R
PAGOSA SPRINGS FAIR      41  23  49 CALM      30.15S
TELLURIDE      FAIR      47  28  47 CALM      30.19S
WOLF CREEK PAS FAIR      32  18  55 SW16G22   30.35S WCI  21
$$

COZ009-010-012-014-032>034-037-058>063-201300-
...CENTRAL COLORADO...

CITY           SKY/WX    TMP DP  RH WIND       PRES   REMARKS
ASPEN          FAIR      44  32  62 CALM      30.05R
BUENA VISTA    FAIR      55  25  31 SW8       30.04R
COPPER MTN     FAIR      41  25  52 W17G26    30.24R
BERTHOUD PASS  FAIR      32  27  80 W26G40    30.22R WCI  18
COTTONWOOD PAS FAIR      52  23  32 W14G36    30.12S
GUNNISON       FAIR      41  25  53 NE6       30.09R
KREMMLING      CLOUDY    43  34  70 CALM      30.08R
LEADVILLE      FAIR      41  22  46 VRB5      30.12R
MONARCH PASS   FAIR      36  25  64 W35G45    30.36R
SALIDA         FAIR      60  25  26 SW15G24   30.11R
SUNLIGHT       FAIR      37  28  70 SW10G23   30.22R
WILKERSON PASS FAIR      39  23  52 S8G18     30.21S
$$

COZ069>075-201300-
...SAN LUIS VALLEY/SANGRE DE CRISTO MOUNTAINS...

CITY           SKY/WX    TMP DP  RH WIND       PRES   REMARKS
ALAMOSA        FAIR      48  22  35 S12       30.09R
DEL NORTE      FAIR      42  20  41 W7        30.12S
LA VETA PASS   FAIR      45  18  33 S21G29    30.31R
SAGUACHE       FAIR      34  27  75 N3        30.12R
$$

COZ035-036-038>040-201300-
...NORTHERN COLORADO FRONT RANGE...

CITY           SKY/WX    TMP DP  RH WIND       PRES   REMARKS
DENVER INTL AP FAIR      43  31  62 SE15      29.97R
DMNS CITY PARK   N/A     44  32  64 NE1       29.97R
AURORA         PTCLDY    44  32  64 E17       29.97S
FRONT RANGE AP FAIR      45  32  61 SE15      29.99R
ERIE MUNI ARPT FAIR      43  32  64 CALM      30.02R
BOULDER MUN AP FAIR      43  32  65 CALM      29.97R
CENTENNIAL     FAIR      44  32  62 CALM      29.96S
BROOMFIELD     FAIR      45  32  61 SE8       29.98R
FORT COLLINS   MOCLDY    45  34  65 S6        29.97R
LONGMONT       MOCLDY    43  35  74 CALM      29.99R
$$

COZ041-046-047-076>085-087-088-201300-
...PIKES PEAK/PALMER DIVIDE AND SOUTHERN FOOTHILLS...

CITY           SKY/WX    TMP DP  RH WIND       PRES   REMARKS
COLO. SPRINGS  FAIR      41  31  67 E9        30.05R
A. F. ACADEMY  FAIR      42  29  62 SE7       30.04R
SCHRIEVER AFB  FAIR      38  29  70 MISG      30.05R
CHEYENNE MTN   NOT AVBL
ELLICOTT         N/A    N/A N/A N/A CALM      30.04R
FALCON         FAIR      37  28  70 SW5       30.07R
FORT CARSON    FAIR      43  30  60 S16       30.02R
LIMON          FAIR      38  30  73 W7        30.01R
MONUMENT HILL  FAIR      43  30  61 S23G29    30.01R
CANON CITY     CLEAR     45  32  61 N7        30.04R
WALSENBURG     FAIR      37  30  75 W6        30.05R
TRINIDAD       FAIR      40  35  83 NW7       30.05R
$$

COZ042>045-048>051-090-091-201300-
...NORTHEAST COLORADO...

CITY           SKY/WX    TMP DP  RH WIND       PRES   REMARKS
GREELEY ARPT   MOCLDY    45  34  65 SW6       29.98R
AKRON          FAIR      43  27  53 CALM      29.98R
BURLINGTON     FAIR      38  31  76 W7        29.98R
WRAY           FAIR      37  32  81 W6        29.96R
YUMA           FAIR      34  30  86 SW6       29.96R WCI  29
STERLING       FAIR      37  34  87 S5        29.95R
HOLYOKE        NOT AVBL
FORT MORGAN    FAIR      39  29  68 W5        29.98R
$$

COZ086-089-092>099-201300-
...SOUTHEAST COLORADO...

CITY           SKY/WX    TMP DP  RH WIND       PRES   REMARKS
PUEBLO         FAIR      40  27  59 N5        30.02R
LA JUNTA       FAIR      44  34  67 W8        30.01R
LAMAR          FAIR      41  31  67 SW7       29.98R
SPRINGFIELD    NOT AVBL
$$




USA.gov is the U.S. government's official web portal to all federal, state and local government web resources and services.